Torna al catalogo

OPS 3367 A

AttivoNavigazioneSSO
NORAD 734·PAYLOAD·🇺🇸 United States

Lanciato Jan 19, 1964 da Vandenberg Space Force Base

Loading…

Prossimi Passaggi (prossime 24 ore)

TLE

AggiornatoSource: Space-Track

Epoca: Sep 14, 2026, 06:15 UTC

1 00734U 64002B   26257.26062600  .00000059  00000-0  41481-4 0  9996
2 00734  98.9804 190.1607 0013455 289.9099  70.0632 14.29719916261491

Traccia OPS 3367 A in tempo reale con AllMySat

Download on the App Store